Location: Demmingen
(48.6757°N, 10.4375°E)
Time: 21:49:34
(UTC+00:00)

Nadezhda 1 Rocket - Pass Details

Date: 23 May 2024
Orbit: 941 x 1004 km, 83.0° (Epoch: 14 June)

Event Time Altitude Azimuth Distance (km) Brightness Sun altitude
Rises 01:04:59 0° 348° (NNW) 3,743 7.9 -16.5°
Reaches altitude 10° 01:07:32 10° 346° (NNW) 2,790 7.1 -16.3°
Maximum altitude 01:13:52 64° 266° (W) 1,102 4.1 -15.8°
Enters shadow 01:18:18 20° 191° (S) 2,106 5.2 -15.4°
